![]() |
EMODnet Physics ERDDAP
Easier access to scientific data |
log in|
Brought to you by EMODnet Physics |
| Dataset Title: | NDBC - Collection of dew point temperature (DEWT) TimeSeries - IN SITU MultiPointTimeSeriesObservation
|
| Institution: | NDBC (Dataset ID: TS_DEWT_NDBC) |
| Information: | Summary
| License
| FGDC
| ISO 19115
| Metadata
| Background
| Subset
| Data Access Form
| Make a graph
|
| Name | Last modified | Size | Description | |
|---|---|---|---|---|
| Parent Directory | - | - | ||
| 41041_TS_DEWT_012006.nc | 02-Jan-2025 08:45 | 1110246 | ||
| 41041_TS_DEWT_012007.nc | 02-Jan-2025 08:47 | 1259374 | ||
| 41041_TS_DEWT_012008.nc | 19-Jan-2026 06:41 | 1261164 | ||
| 41041_TS_DEWT_012011.nc | 19-Jan-2026 07:00 | 1115033 | ||
| 41041_TS_DEWT_012014.nc | 19-Jan-2026 07:16 | 1110646 | ||
| 41041_TS_DEWT_012016.nc | 19-Jan-2026 07:36 | 1260326 | ||
| 41041_TS_DEWT_012017.nc | 19-Jan-2026 07:58 | 1258362 | ||
| 41041_TS_DEWT_022006.nc | 02-Jan-2025 08:45 | 1259350 | ||
| 41041_TS_DEWT_022007.nc | 02-Jan-2025 08:47 | 1259961 | ||
| 41041_TS_DEWT_022008.nc | 19-Jan-2026 06:42 | 982411 | ||
| 41041_TS_DEWT_022011.nc | 19-Jan-2026 07:00 | 660383 | ||
| 41041_TS_DEWT_022016.nc | 19-Jan-2026 07:38 | 1021562 | ||
| 41041_TS_DEWT_022017.nc | 19-Jan-2026 07:59 | 651508 | ||
| 41041_TS_DEWT_032006.nc | 02-Jan-2025 08:45 | 1099194 | ||
| 41041_TS_DEWT_032007.nc | 02-Jan-2025 08:47 | 1022975 | ||
| 41041_TS_DEWT_032008.nc | 19-Jan-2026 06:43 | 1109409 | ||
| 41041_TS_DEWT_032011.nc | 19-Jan-2026 07:01 | 1110491 | ||
| 41041_TS_DEWT_032013.nc | 19-Jan-2026 07:10 | 1106014 | ||
| 41041_TS_DEWT_032016.nc | 19-Jan-2026 07:39 | 1105290 | ||
| 41041_TS_DEWT_032017.nc | 19-Jan-2026 08:00 | 1106757 | ||
| 41041_TS_DEWT_042006.nc | 02-Jan-2025 08:45 | 1109262 | ||
| 41041_TS_DEWT_042007.nc | 02-Jan-2025 08:47 | 1108279 | ||
| 41041_TS_DEWT_042008.nc | 19-Jan-2026 06:44 | 1110587 | ||
| 41041_TS_DEWT_042011.nc | 19-Jan-2026 07:01 | 985822 | ||
| 41041_TS_DEWT_042013.nc | 19-Jan-2026 07:11 | 684573 | ||
| 41041_TS_DEWT_042016.nc | 19-Jan-2026 07:41 | 1095194 | ||
| 41041_TS_DEWT_042017.nc | 19-Jan-2026 08:01 | 1111888 | ||
| 41041_TS_DEWT_042019.nc | 19-Jan-2026 08:32 | 1262099 | ||
| 41041_TS_DEWT_052005.nc | 02-Jan-2025 08:44 | 1029294 | ||
| 41041_TS_DEWT_052006.nc | 02-Jan-2025 08:46 | 1106111 | ||
| 41041_TS_DEWT_052007.nc | 02-Jan-2025 08:48 | 1015977 | ||
| 41041_TS_DEWT_052008.nc | 19-Jan-2026 06:44 | 1117819 | ||
| 41041_TS_DEWT_052010.nc | 19-Jan-2026 06:57 | 1262756 | ||
| 41041_TS_DEWT_052011.nc | 19-Jan-2026 07:02 | 1113660 | ||
| 41041_TS_DEWT_052013.nc | 19-Jan-2026 07:12 | 1261174 | ||
| 41041_TS_DEWT_052015.nc | 19-Jan-2026 07:30 | 1262518 | ||
| 41041_TS_DEWT_052016.nc | 19-Jan-2026 07:42 | 1265325 | ||
| 41041_TS_DEWT_052017.nc | 19-Jan-2026 08:03 | 1264001 | ||
| 41041_TS_DEWT_052019.nc | 19-Jan-2026 08:33 | 420943 | ||
| 41041_TS_DEWT_052021.nc | 19-Jan-2026 08:35 | 672247 | ||
| 41041_TS_DEWT_062005.nc | 02-Jan-2025 08:44 | 1010501 | ||
| 41041_TS_DEWT_062006.nc | 02-Jan-2025 08:46 | 1019191 | ||
| 41041_TS_DEWT_062007.nc | 02-Jan-2025 08:48 | 1026641 | ||
| 41041_TS_DEWT_062008.nc | 19-Jan-2026 06:45 | 1018043 | ||
| 41041_TS_DEWT_062010.nc | 19-Jan-2026 06:58 | 1117337 | ||
| 41041_TS_DEWT_062011.nc | 19-Jan-2026 07:02 | 1013940 | ||
| 41041_TS_DEWT_062013.nc | 19-Jan-2026 07:12 | 1110793 | ||
| 41041_TS_DEWT_062015.nc | 19-Jan-2026 07:30 | 1031337 | ||
| 41041_TS_DEWT_062016.nc | 19-Jan-2026 07:43 | 1111663 | ||
| 41041_TS_DEWT_062017.nc | 19-Jan-2026 08:04 | 1113262 | ||
| 41041_TS_DEWT_062021.nc | 19-Jan-2026 08:36 | 1109144 | ||
| 41041_TS_DEWT_072005.nc | 02-Jan-2025 08:44 | 1111024 | ||
| 41041_TS_DEWT_072006.nc | 02-Jan-2025 08:46 | 1113552 | ||
| 41041_TS_DEWT_072007.nc | 02-Jan-2025 08:48 | 994007 | ||
| 41041_TS_DEWT_072008.nc | 19-Jan-2026 06:46 | 1014690 | ||
| 41041_TS_DEWT_072010.nc | 19-Jan-2026 06:58 | 1012795 | ||
| 41041_TS_DEWT_072011.nc | 19-Jan-2026 07:02 | 1104756 | ||
| 41041_TS_DEWT_072013.nc | 19-Jan-2026 07:13 | 633219 | ||
| 41041_TS_DEWT_072015.nc | 19-Jan-2026 07:31 | 1021603 | ||
| 41041_TS_DEWT_072016.nc | 19-Jan-2026 07:44 | 1112245 | ||
| 41041_TS_DEWT_072017.nc | 19-Jan-2026 08:06 | 1113626 | ||
| 41041_TS_DEWT_072021.nc | 19-Jan-2026 08:37 | 1263943 | ||
| 41041_TS_DEWT_082005.nc | 02-Jan-2025 08:44 | 1265242 | ||
| 41041_TS_DEWT_082006.nc | 02-Jan-2025 08:46 | 1107600 | ||
| 41041_TS_DEWT_082007.nc | 02-Jan-2025 08:48 | 1265679 | ||
| 41041_TS_DEWT_082008.nc | 19-Jan-2026 06:47 | 1264329 | ||
| 41041_TS_DEWT_082010.nc | 19-Jan-2026 06:58 | 4864582 | ||
| 41041_TS_DEWT_082011.nc | 19-Jan-2026 07:03 | 3716213 | ||
| 41041_TS_DEWT_082012.nc | 19-Jan-2026 07:07 | 3226432 | ||
| 41041_TS_DEWT_082013.nc | 19-Jan-2026 07:14 | 4973422 | ||
| 41041_TS_DEWT_082015.nc | 19-Jan-2026 07:32 | 4168526 | ||
| 41041_TS_DEWT_082016.nc | 19-Jan-2026 07:46 | 3755294 | ||
| 41041_TS_DEWT_092005.nc | 02-Jan-2025 08:44 | 4526417 | ||
| 41041_TS_DEWT_092006.nc | 02-Jan-2025 08:46 | 5346157 | ||
| 41041_TS_DEWT_092007.nc | 02-Jan-2025 08:48 | 5327831 | ||
| 41041_TS_DEWT_092008.nc | 19-Jan-2026 06:47 | 4858804 | ||
| 41041_TS_DEWT_092010.nc | 19-Jan-2026 06:59 | 1009222 | ||
| 41041_TS_DEWT_092011.nc | 19-Jan-2026 07:03 | 5279803 | ||
| 41041_TS_DEWT_092012.nc | 19-Jan-2026 07:07 | 1679466 | ||
| 41041_TS_DEWT_092013.nc | 19-Jan-2026 07:14 | 4743637 | ||
| 41041_TS_DEWT_092015.nc | 19-Jan-2026 07:32 | 1830927 | ||
| 41041_TS_DEWT_092016.nc | 19-Jan-2026 07:51 | 5590256 | ||
| 41041_TS_DEWT_102005.nc | 02-Jan-2025 08:44 | 1673228 | ||
| 41041_TS_DEWT_102006.nc | 02-Jan-2025 08:46 | 5532381 | ||
| 41041_TS_DEWT_102007.nc | 02-Jan-2025 08:48 | 4974152 | ||
| 41041_TS_DEWT_102008.nc | 19-Jan-2026 06:48 | 5177047 | ||
| 41041_TS_DEWT_102010.nc | 19-Jan-2026 06:59 | 1477959 | ||
| 41041_TS_DEWT_102013.nc | 19-Jan-2026 07:15 | 1475913 | ||
| 41041_TS_DEWT_102015.nc | 19-Jan-2026 07:33 | 1472758 | ||
| 41041_TS_DEWT_102016.nc | 19-Jan-2026 07:54 | 1469900 | ||
| 41041_TS_DEWT_112005.nc | 02-Jan-2025 08:45 | 1627608 | ||
| 41041_TS_DEWT_112006.nc | 02-Jan-2025 08:47 | 1627751 | ||
| 41041_TS_DEWT_112007.nc | 02-Jan-2025 08:49 | 1627908 | ||
| 41041_TS_DEWT_112008.nc | 19-Jan-2026 06:49 | 1627506 | ||
| 41041_TS_DEWT_112010.nc | 19-Jan-2026 06:59 | 1627247 | ||
| 41041_TS_DEWT_112013.nc | 19-Jan-2026 07:15 | 1625965 | ||
| 41041_TS_DEWT_112015.nc | 19-Jan-2026 07:34 | 1462665 | ||
| 41041_TS_DEWT_112016.nc | 19-Jan-2026 07:55 | 1627370 | ||
| 41041_TS_DEWT_122005.nc | 02-Jan-2025 08:45 | 1626160 | ||
| 41041_TS_DEWT_122006.nc | 02-Jan-2025 08:47 | 1627700 | ||
| 41041_TS_DEWT_122008.nc | 19-Jan-2026 06:50 | 1627772 | ||
| 41041_TS_DEWT_122010.nc | 19-Jan-2026 07:00 | 1627831 | ||
| 41041_TS_DEWT_122013.nc | 19-Jan-2026 07:16 | 1627896 | ||
| 41041_TS_DEWT_122015.nc | 19-Jan-2026 07:35 | 1157476 | ||
| 41041_TS_DEWT_122016.nc | 19-Jan-2026 07:57 | 1472925 | ||